RH
10 9 9 8 7 7 6 6 6 6 6 6 6 6 7 10 12 14 14 15 13 14 14 13 13 11 9 8 8 8 8 8 9
10 10 10 8 7 7 7 7 7 7 6 6 6 6 7 12 13 16 19 24 29 27 26 24 22 19 19 19 17 16 15 14 11
10 11 10 8 7 7 7 7 7 7 7 7 7 8 8 14 17 22 26 27 24 22 23 26 29 28 28 27 28 29 29 29 27
11 11 11 8 8 8 8 8 8 8 9 9 9 9 10 19 20 25 27 25 21 18 20 27 34 36 36 37 36 36 33 32 30
11 11 12 10 9 9 9 9 9 9 9 10 10 10 14 18 21 22 25 23 22 20 21 24 29 31 30 31 32 33 32 30 29
11 12 12 10 10 9 9 9 9 10 10 11 11 12 18 19 23 22 19 20 21 20 22 23 27 29 30 27 28 28 29 28 26
12 12 12 11 10 10 10 10 10 10 11 12 13 17 18 19 20 20 17 20 21 21 21 22 24 27 26 25 23 21 21 20 20
12 12 11 11 11 11 11 11 11 11 12 14 16 16 17 19 20 16 17 17 18 21 23 23 24 25 25 23 19 20 19 18 17
12 12 11 12 11 11 11 12 12 12 13 14 15 17 19 20 21 17 17 16 15 15 19 19 22 24 24 25 21 18 16 16 17
12 13 13 12 12 12 12 13 13 13 13 14 16 18 20 19 19 18 18 16 16 16 17 18 21 26 27 27 22 18 18 18 18
15 13 13 13 13 13 13 14 14 14 15 16 17 18 19 18 19 19 18 18 18 19 19 19 20 22 25 26 21 20 20 20 20
21 16 15 15 14 14 14 15 15 15 16 17 18 19 20 20 20 19 20 20 21 22 22 23 23 24 24 25 24 23 23 22 22
27 23 19 17 17 17 16 16 16 17 18 19 20 20 21 20 21 21 21 21 22 23 24 25 26 26 27 27 28 28 28 28 28
31 30 24 20 19 18 18 18 17 18 18 20 20 21 22 22 22 22 21 21 22 24 26 27 28 29 29 30 31 32 33 34 35
31 32 30 24 21 20 20 19 19 18 19 20 21 22 22 23 25 23 23 23 24 25 28 30 31 32 32 33 34 35 36 37 38
29 32 34 30 24 22 22 21 20 20 20 21 22 23 24 24 26 24 25 25 27 29 32 33 34 35 35 35 36 37 38 39 40
31 33 35 33 29 24 24 23 23 22 22 24 25 27 28 27 26 26 28 29 31 33 36 35 36 36 37 38 39 39 39 39 39
38 39 37 35 33 27 25 25 24 24 24 24 26 28 29 30 28 30 30 32 35 38 38 38 39 40 40 39 36 33 31 30 32
41 40 38 41 39 32 28 27 27 27 27 27 28 29 30 32 33 33 33 35 38 41 43 43 41 37 33 29 28 28 29 29 30
50 48 45 47 43 38 31 29 29 30 30 31 31 32 32 33 35 37 39 42 45 46 42 36 35 30 28 29 29 28 27 26 26